Crane Lake, MN

8:18 AM CDT on March 28, 2017 (GMT -0500)
Crane Lake

Weather History for KCDD - June, 2014

Change the Weather History Date:

Wednesday, June 4, 2014

  Actual Average Record
Temperature  
Mean Temperature 60 °F -  
Max Temperature 80 °F 66 °F 84 °F (2006)
Min Temperature 39 °F 44 °F 33 °F (2013)
Degree Days  
Heating Degree Days 6    
Growing Degree Days 10 (Base 50)    
Moisture  
Dew Point 46 °F    
Average Humidity 65    
Maximum Humidity 100    
Minimum Humidity 24    
Precipitation  
Precipitation 0.00 in - - ()
Sea Level Pressure  
Sea Level Pressure 29.92 in    
Wind  
Wind Speed 1 mph (WSW)    
Max Wind Speed 6 mph    
Max Gust Speed -    
Visibility 10 miles    
Events      
Averages and records for this station are not official NWS values.
T = Trace of Precipitation, MM = Missing Value Source: NWS Daily Summary

Daily Weather History Graph

Daily Weather History Graph

Search for Another Location

Airport or City:

Trip Planner

Search our weather history database for the weather conditions in past years. The results will help you decide how hot, cold, wet, or windy it might be!

Date:

Astronomy

Jun. 04, 2014 Rise Set
Actual Time 5:11 AM CDT 9:05 PM CDT
Civil Twilight 4:31 AM CDT 9:46 PM CDT
Nautical Twilight 3:35 AM CDT 10:42 PM CDT
Astronomical Twilight 2:08 AM CDT 12:10 AM CDT
Moon 11:53 AM CDT (6/4) 12:44 AM CDT (6/4)
Length of Visible Light 17h 14m
Length of Day
15h 53m
Waxing Crescent, 39% of the Moon is Illuminated
Jun 4
Waxing Crescent
Jun 5
First Quarter
Jun 12
Full
Jun 19
Last Quarter
Jun 27
New

Hourly Weather History & Observations

Time (CDT) Temp. Dew Point Humidity Pressure Visibility Wind Dir Wind Speed Gust Speed Precip Events Conditions
12:10 AM 44.6 °F 42.8 °F 93% 29.89 in 10.0 mi Calm Calm - N/A   Clear
12:30 AM 44.6 °F 42.8 °F 93% 29.89 in 10.0 mi Calm Calm - N/A   Clear
12:51 AM 44.6 °F 42.8 °F 93% 29.88 in 10.0 mi Calm Calm - N/A   Clear
1:10 AM 42.8 °F 41.0 °F 93% 29.88 in 10.0 mi Calm Calm - N/A   Clear
1:30 AM 42.8 °F 42.8 °F 100% 29.88 in 5.0 mi Calm Calm - N/A   Clear
1:50 AM 42.8 °F 41.0 °F 93% 29.89 in 10.0 mi Calm Calm - N/A   Clear
2:10 AM 42.8 °F 39.2 °F 87% 29.89 in 10.0 mi Calm Calm - N/A   Clear
2:30 AM 41.0 °F 39.2 °F 93% 29.90 in 10.0 mi Calm Calm - N/A   Clear
2:49 AM 41.0 °F 39.2 °F 93% 29.91 in 10.0 mi Calm Calm - N/A   Clear
3:10 AM 41.0 °F 39.2 °F 93% 29.91 in 10.0 mi Calm Calm - N/A   Clear
3:29 AM 41.0 °F 39.2 °F 93% 29.91 in 10.0 mi Calm Calm - N/A   Clear
3:50 AM 39.2 °F 39.2 °F 100% 29.91 in 10.0 mi Calm Calm - N/A   Clear
4:10 AM 39.2 °F 37.4 °F 93% 29.92 in 10.0 mi Calm Calm - N/A   Clear
4:30 AM 39.2 °F 37.4 °F 93% 29.92 in 10.0 mi Calm Calm - N/A   Clear
4:50 AM 39.2 °F 37.4 °F 93% 29.92 in 10.0 mi Calm Calm - N/A   Clear
5:10 AM 39.2 °F 37.4 °F 93% 29.93 in 5.0 mi Calm Calm - N/A   Clear
5:30 AM 39.2 °F 37.4 °F 93% 29.93 in 10.0 mi Calm Calm - N/A   Clear
5:50 AM 39.2 °F 37.4 °F 93% 29.93 in 10.0 mi Calm Calm - N/A   Clear
6:10 AM 39.2 °F 39.2 °F 100% 29.93 in 10.0 mi Calm Calm - N/A   Clear
6:30 AM 41.0 °F 39.2 °F 93% 29.93 in 7.0 mi Calm Calm - N/A   Clear
6:50 AM 46.4 °F 46.4 °F 100% 29.93 in 10.0 mi Calm Calm - N/A   Clear
7:09 AM 51.8 °F 50.0 °F 94% 29.93 in 10.0 mi Calm Calm - N/A   Clear
7:30 AM 55.4 °F 53.6 °F 94% 29.93 in 10.0 mi Calm Calm - N/A   Clear
7:49 AM 57.2 °F 57.2 °F 100% 29.93 in 10.0 mi Calm Calm - N/A   Clear
8:09 AM 60.8 °F 57.2 °F 88% 29.93 in 10.0 mi Calm Calm - N/A   Clear
8:30 AM 62.6 °F 60.8 °F 94% 29.93 in 10.0 mi Calm Calm - N/A   Clear
8:49 AM 66.2 °F 62.6 °F 88% 29.93 in 10.0 mi Calm Calm - N/A   Clear
9:09 AM 69.8 °F 64.4 °F 83% 29.93 in 10.0 mi Calm Calm - N/A   Clear
9:29 AM 71.6 °F 68.0 °F 88% 29.93 in 10.0 mi Calm Calm - N/A   Clear
9:49 AM 71.6 °F 66.2 °F 83% 29.93 in 10.0 mi WNW 3.5 mph - N/A   Clear
10:09 AM 71.6 °F 57.2 °F 60% 29.94 in 10.0 mi NW 3.5 mph - N/A   Scattered Clouds
10:29 AM 73.4 °F 55.4 °F 53% 29.94 in 10.0 mi Calm Calm - N/A   Scattered Clouds
10:49 AM 71.6 °F 53.6 °F 53% 29.93 in 10.0 mi WSW 5.8 mph - N/A   Scattered Clouds
11:09 AM 75.2 °F 51.8 °F 44% 29.93 in 10.0 mi North 3.5 mph - N/A   Clear
11:29 AM 75.2 °F 48.2 °F 38% 29.94 in 10.0 mi NNW 4.6 mph - N/A   Clear
11:50 AM 73.4 °F 46.4 °F 38% 29.94 in 10.0 mi NW 3.5 mph - N/A   Scattered Clouds
12:09 PM 75.2 °F 46.4 °F 36% 29.94 in 10.0 mi Calm Calm - N/A   Mostly Cloudy
12:29 PM 75.2 °F 44.6 °F 34% 29.95 in 10.0 mi Calm Calm - N/A   Mostly Cloudy
12:49 PM 73.4 °F 46.4 °F 38% 29.94 in 10.0 mi Calm Calm - N/A   Mostly Cloudy
1:09 PM 71.6 °F 50.0 °F 46% 29.94 in 10.0 mi Calm Calm - N/A   Overcast
1:29 PM 71.6 °F 48.2 °F 43% 29.94 in 10.0 mi Calm Calm - N/A   Overcast
1:50 PM 71.6 °F 50.0 °F 46% 29.94 in 10.0 mi North 4.6 mph - N/A   Mostly Cloudy
2:10 PM 77.0 °F 44.6 °F 32% 29.94 in 10.0 mi Calm Calm - N/A   Mostly Cloudy
2:30 PM 75.2 °F 44.6 °F 34% 29.93 in 10.0 mi NNW 3.5 mph - N/A   Scattered Clouds
2:49 PM 78.8 °F 50.0 °F 36% 29.93 in 10.0 mi Calm Calm - N/A   Clear
3:09 PM 77.0 °F 46.4 °F 34% 29.92 in 10.0 mi Calm Calm - N/A   Scattered Clouds
3:29 PM 80.6 °F 48.2 °F 32% 29.92 in 10.0 mi Calm Calm - N/A   Mostly Cloudy
3:49 PM 78.8 °F 42.8 °F 28% 29.92 in 10.0 mi Calm Calm - N/A   Overcast
4:09 PM 80.6 °F 42.8 °F 26% 29.91 in 10.0 mi Calm Calm - N/A   Overcast
4:29 PM 78.8 °F 41.0 °F 26% 29.91 in 10.0 mi Calm Calm - N/A   Mostly Cloudy
4:49 PM 78.8 °F 41.0 °F 26% 29.91 in 10.0 mi South 3.5 mph - N/A   Scattered Clouds
5:11 PM 78.8 °F 42.8 °F 28% 29.91 in 10.0 mi Calm Calm - N/A   Clear
5:30 PM 78.8 °F 41.0 °F 26% 29.90 in 10.0 mi WNW 3.5 mph - N/A   Clear
5:50 PM 78.8 °F 41.0 °F 26% 29.90 in 10.0 mi South 3.5 mph - N/A   Clear
6:10 PM 78.8 °F 41.0 °F 26% 29.90 in 10.0 mi Calm Calm - N/A   Clear
6:30 PM 78.8 °F 39.2 °F 24% 29.90 in 10.0 mi Calm Calm - N/A   Scattered Clouds
6:49 PM 75.2 °F 39.2 °F 27% 29.90 in 10.0 mi Calm Calm - N/A   Scattered Clouds
7:09 PM 77.0 °F 39.2 °F 26% 29.90 in 10.0 mi South 3.5 mph - N/A   Scattered Clouds
7:29 PM 77.0 °F 41.0 °F 28% 29.90 in 10.0 mi Calm Calm - N/A   Clear
7:49 PM 73.4 °F 44.6 °F 36% 29.90 in 10.0 mi Calm Calm - N/A   Clear
8:11 PM 66.2 °F 44.6 °F 46% 29.90 in 10.0 mi Calm Calm - N/A   Clear
8:31 PM 60.8 °F 44.6 °F 55% 29.90 in 10.0 mi Calm Calm - N/A   Clear
8:50 PM 57.2 °F 44.6 °F 63% 29.90 in 10.0 mi Calm Calm - N/A   Clear
9:09 PM 55.4 °F 46.4 °F 72% 29.90 in 10.0 mi Calm Calm - N/A   Clear
9:29 PM 53.6 °F 46.4 °F 77% 29.90 in 10.0 mi Calm Calm - N/A   Clear
10:10 PM 51.8 °F 46.4 °F 82% 29.92 in 10.0 mi Calm Calm - N/A   Clear
10:30 PM 53.6 °F 48.2 °F 82% 29.92 in 10.0 mi SE 3.5 mph - N/A   Clear
10:50 PM 55.4 °F 48.2 °F 77% 29.92 in 10.0 mi SSE 3.5 mph - N/A   Clear
11:10 PM 57.2 °F 46.4 °F 67% 29.93 in 10.0 mi SSE 4.6 mph - N/A   Clear
11:29 PM 57.2 °F 46.4 °F 67% 29.93 in 10.0 mi SSE 4.6 mph - N/A   Clear
11:50 PM 57.2 °F 44.6 °F 63% 29.92 in 10.0 mi SSE 3.5 mph - N/A   Clear